Flag for Italy Weather past 2 weeks in Palermo, Italy

Now
57 °F

Passing clouds.


Feels Like: 56 °F
Forecast: 47 / 60 °F
Wind: 6 mph from Northwest

Location: Palermo / Punta Raisi

Current Time: Mar 1, 2015 at 12:51:00 PM

Latest Report: Mar 1, 2015 at 12:20 PM


Visibility: N/A

Pressure: 30.15 "Hg

Humidity: 77%

Dew point: 50 °F

Location of PalermoLocation

Historic Weather in Palermo — Graph

°F

Palermo temperature yesterday

Maximum temperature yesterday: 57 °F (at 11:20 AM)
Minimum temperature yesterday: 46 °F (at 4:50 AM)
Average temperature yesterday: 53 °F

Past Weeks' High & Low Weather Summary

 TemperatureHumidityPressure
High63 °F (Feb 16, 11:50 AM)100% (Feb 22, 8:50 AM)30.42 "Hg (Feb 22, 8:50 AM)
Low43 °F (Feb 20, 4:20 AM)55% (Feb 15, 8:50 PM)29.36 "Hg (Feb 22, 11:50 AM)
Average54 °F77%29.90 "Hg
* Reported Feb 14 11:20 AM — Mar 1 11:50 AM, Palermo, Weather by CustomWeather, © 2015

Note: Actual official high and low records may vary slightly from our data, if they occured in-between our weather recording intervals... More about our weather records

Advertising

Palermo weather history for previous 24 hours

 ConditionsComfort  
Time TempWeatherWind HumidityBarometerVisibility
11:50 AM
Sun, Mar 1
57 °FPassing clouds.7 mph72%30.15 "HgN/A
11:20 AM55 °FPassing clouds.7 mph77%30.15 "HgN/A
10:50 AM55 °FPassing clouds.6 mph77%30.15 "HgN/A
10:20 AM57 °FPassing clouds.5 mph72%30.15 "HgN/A
9:50 AM55 °FPassing clouds.3 mph77%30.15 "HgN/A
9:20 AM52 °FPassing clouds.5 mph88%30.15 "HgN/A
8:50 AM52 °FPassing clouds.5 mph82%30.12 "HgN/A
8:20 AM50 °FPassing clouds.6 mph82%30.12 "HgN/A
7:50 AM48 °FPassing clouds.7 mph87%30.12 "HgN/A
7:20 AM48 °FPassing clouds.7 mph87%30.09 "HgN/A
6:50 AM46 °FPassing clouds.7 mph93%30.09 "HgN/A
6:20 AM46 °FPassing clouds.5 mph87%30.09 "HgN/A
5:50 AM48 °FPassing clouds.3 mph87%30.09 "HgN/A
5:20 AM50 °FPassing clouds.6 mph82%30.07 "HgN/A
4:50 AM50 °FPassing clouds.7 mph82%30.09 "HgN/A
4:20 AM48 °FPassing clouds.7 mph87%30.09 "HgN/A
3:50 AM48 °FPassing clouds.6 mph82%30.07 "HgN/A
3:20 AM46 °FPassing clouds.7 mph87%30.07 "HgN/A
2:50 AM46 °FPassing clouds.6 mph82%30.07 "HgN/A
2:20 AM48 °FPassing clouds.5 mph82%30.09 "HgN/A
1:50 AM48 °FPassing clouds.6 mph82%30.09 "HgN/A
1:20 AM48 °FPassing clouds.6 mph82%30.09 "HgN/A
12:50 AM48 °FPassing clouds.5 mph82%30.09 "HgN/A
12:20 AM48 °FPassing clouds.5 mph82%30.09 "HgN/A
11:50 PM
Sat, Feb 28
50 °FPassing clouds.6 mph82%30.09 "HgN/A
11:20 PM50 °FPassing clouds.5 mph76%30.09 "HgN/A
10:50 PM52 °FPassing clouds.5 mph82%30.07 "HgN/A
9:50 PM54 °FPassing clouds.5 mph77%30.07 "HgN/A
9:20 PM54 °FPassing clouds.5 mph77%30.07 "HgN/A
8:50 PM52 °FPassing clouds.3 mph82%30.07 "HgN/A
8:20 PM54 °FPassing clouds.2 mph77%30.07 "HgN/A
7:50 PM54 °FPassing clouds.3 mph77%30.07 "HgN/A
7:20 PM54 °FPassing clouds.3 mph77%30.04 "HgN/A
6:50 PM54 °FPassing clouds.2 mph82%30.04 "HgN/A
6:20 PM55 °FPassing clouds.3 mph77%30.04 "HgN/A
5:50 PM55 °FPassing clouds.3 mph77%30.04 "HgN/A
5:20 PM57 °FPassing clouds.6 mph72%30.01 "HgN/A
4:50 PM57 °FPassing clouds.6 mph72%30.01 "HgN/A
4:20 PM57 °FPassing clouds.6 mph72%30.01 "HgN/A
3:50 PM57 °FPassing clouds.6 mph72%30.01 "HgN/A
3:20 PM57 °FPassing clouds.6 mph72%30.01 "HgN/A
2:50 PM57 °FPassing clouds.6 mph72%30.01 "HgN/A
2:20 PM57 °FPassing clouds.6 mph72%30.01 "HgN/A
1:50 PM57 °FPassing clouds.6 mph72%30.01 "HgN/A
1:20 PM57 °FPassing clouds.6 mph72%30.01 "HgN/A
12:50 PM57 °FPassing clouds.6 mph72%30.04 "HgN/A
12:20 PM57 °FPassing clouds.5 mph72%30.04 "HgN/A
Weather by CustomWeather, © 2015

See weather overviewHow to use our weather pages